Location: Kott?ru
(16.6209°N, 80.6208°E)
Time: 14:28:16
(UTC+00:00)

YAOGAN 1 - Pass Details

Date: 18 September 2020
Orbit: 618 x 620 km, 97.9° (Epoch: 29 October)

Event Time Altitude Azimuth Distance (km) Brightness Sun altitude
Rises 13:22:09 0° 160° (SSE) 2,883 5.7 -11.7°
Reaches altitude 10° 13:24:21 10° 156° (SSE) 1,978 4.9 -12.2°
Maximum altitude 13:28:35 59° 77° (ENE) 719 2.6 -13.2°
Drops below altitude 10° 13:32:49 10° 358° (N) 1,982 5.2 -14.2°
Sets 13:35:02 0° 355° (N) 2,889 6.1 -14.7°
